GW6987 Weather Reports


time (UTC)temp
C
wind
direction
speed
KPH
gust
KPH
rain 1hr
cm
rain 24hr
cm
rain mn
cm
humidity
%
barometer
mb
20260503180048 9 0 3.2 14.5 0.00 0.00 0.10 96
20260503173048 9 23 3.2 17.7 0.00 0.00 0.10 96
20260503110111 8 0 1.6 6.4 0.00 0.00 0.00 95
20260503090110 8 0 1.6 4.8 0.00 0.00 0.00 95
20260503053046 9 180 1.6 6.4 0.00 0.00 0.00 91
20260503050046 10 0.0 3.2 0.00 0.00 0.00 91
20260503043046 10 180 1.6 4.8 0.00 0.00 0.00 90
20260503040046 10 135 1.6 9.7 0.00 0.00 0.00 89
20260503033046 11 180 3.2 8.0 0.00 0.00 0.00 88
20260503030046 12 158 1.6 9.7 0.00 0.00 0.00 86
20260503023046 12 203 1.6 6.4 0.00 0.00 0.00 85
20260503020046 13 0.0 3.2 0.00 0.00 0.00 84
20260503013048 13 0 1.6 4.8 0.00 0.00 0.00 83
20260503010113 14 0 1.6 6.4 0.00 0.00 0.00 81
20260503003047 15 0 3.2 9.7 0.00 0.00 0.00 78
20260503000047 16 23 4.8 14.5 0.00 0.00 0.00 75
20260502233111 17 0 3.2 11.3 0.00 0.00 0.00 74
20260502230135 17 0 4.8 12.9 0.00 0.00 0.00 74
20260502223047 17 23 4.8 9.7 0.00 0.00 0.00 73
20260502220048 17 0 4.8 11.3 0.00 0.00 0.00 73
20260502213112 17 338 3.2 11.3 0.00 0.00 0.00 76
20260502210047 15 338 4.8 11.3 0.00 0.00 0.00 78
20260502203046 14 338 4.8 12.9 0.00 0.00 0.00 85
20260502200046 13 23 3.2 9.7 0.00 0.00 0.00 85
20260502193046 13 23 3.2 11.3 0.00 0.00 0.00 86
20260502190046 13 23 3.2 8.0 0.00 0.00 0.00 81
20260502183046 13 0 3.2 9.7 0.00 0.00 0.00 86